Wind_Speed
7 8 8 8 9 9 9 10 10 9 8 8 7 6 6 6 6 7 9 10 12 13 14 15 16 17 18 19 20 20 22 23 24 25 26 27 28 29 31 32 33 34 35 37 38 39 40 41 41
10 11 11 11 11 10 10 10 9 8 6 6 6 6 7 8 9 10 12 13 14 15 16 17 17 18 19 20 20 22 23 24 25 26 28 29 30 31 33 34 35 37 38 40 41 42 44 45 46
13 13 13 12 11 10 9 8 7 6 5 6 7 8 9 10 11 12 14 14 15 16 17 17 18 18 19 20 22 23 24 25 26 28 29 31 32 34 35 37 39 41 42 44 46 47 48 50 51
14 13 12 10 9 8 7 6 6 5 6 8 9 10 12 13 13 14 15 16 16 17 17 18 19 20 21 22 23 24 26 27 28 30 31 33 35 36 39 41 43 45 47 49 51 52 54 55 57
13 11 10 7 7 7 6 6 6 8 9 10 11 12 13 14 14 15 16 16 17 17 18 19 20 21 22 24 25 26 27 29 30 32 34 35 37 40 42 45 47 50 52 54 56 58 61 62 64
10 9 7 6 6 6 6 8 9 10 11 13 14 14 14 14 15 15 16 16 17 18 19 20 22 23 24 25 26 28 29 31 33 35 36 38 41 43 46 49 51 54 57 60 63 66 68 70 72
8 7 5 5 7 8 9 10 12 12 12 14 15 15 14 14 15 15 16 17 18 19 20 22 23 24 25 27 28 30 31 33 35 37 39 41 44 47 49 53 56 59 62 65 69 73 76 78 81
6 5 5 7 9 10 10 11 12 13 13 13 14 15 15 15 15 16 17 18 19 20 22 23 24 25 27 28 30 32 34 36 38 40 42 44 47 50 53 57 60 63 67 70 74 78 81 85 89
6 6 8 10 11 12 12 12 12 12 12 12 13 14 15 15 15 16 18 19 20 21 23 24 25 27 29 30 32 34 36 38 40 43 45 47 50 53 56 60 63 66 70 74 79 83 87 92 95
7 8 9 11 12 12 12 11 11 11 11 11 12 13 14 14 15 16 18 20 21 22 24 25 27 28 30 32 34 36 38 40 43 45 47 50 53 56 59 62 65 69 73 77 82 87 91 96 100
9 9 10 10 11 11 11 10 10 10 11 11 11 12 13 14 15 17 18 20 22 24 25 27 29 31 33 34 36 38 41 43 45 47 49 52 55 58 61 65 68 71 75 79 84 90 94 98 102
11 11 11 10 10 10 10 10 10 11 11 12 12 12 13 14 15 17 19 21 23 24 26 28 30 32 34 36 38 40 42 44 46 48 51 53 56 59 63 66 69 73 77 81 87 91 95 98 98
12 11 10 10 9 9 9 9 9 10 11 12 13 14 14 15 16 18 19 21 24 26 27 29 31 33 35 37 39 41 43 45 47 49 52 54 57 60 63 67 70 74 79 83 88 91 94 93 89
11 10 10 9 8 8 9 9 9 9 10 11 12 13 14 16 17 18 20 22 25 27 29 30 32 34 36 38 39 41 44 46 48 50 52 55 57 61 64 67 71 76 80 85 88 91 90 86 81
10 9 8 8 7 7 8 9 8 9 9 10 11 13 14 16 18 19 21 23 25 27 29 31 32 34 36 37 39 42 44 46 48 51 53 55 58 62 65 69 73 77 82 85 88 87 84 80 76
9 8 8 7 7 7 8 9 8 9 9 10 11 13 14 16 18 20 22 23 25 27 29 31 33 34 36 38 40 42 44 47 49 51 53 56 59 62 66 70 74 79 83 85 86 83 79 76 73
8 8 8 8 7 7 7 8 9 9 9 10 12 13 14 16 18 20 22 24 26 28 29 31 33 35 37 39 41 43 45 48 50 52 55 57 60 63 67 71 76 80 83 84 83 80 76 73 71
9 8 8 8 7 7 6 7 8 8 9 10 12 13 14 16 18 20 22 24 26 28 30 32 34 36 38 40 42 44 47 49 51 54 56 58 61 65 69 73 77 81 82 82 80 76 73 72 71
10 9 9 8 7 7 7 7 8 8 9 10 11 13 15 16 18 20 22 24 27 29 31 33 35 38 40 42 44 46 49 51 54 56 58 60 63 67 70 74 78 81 81 80 77 74 71 70 70
13 12 11 10 9 9 9 9 9 10 10 11 12 13 15 17 19 21 23 26 28 31 33 35 38 40 42 44 47 49 51 54 56 58 60 62 65 68 72 75 79 80 80 78 75 73 71 69 69
15 14 13 12 12 11 11 11 12 12 12 13 14 15 16 18 20 22 24 27 29 32 34 37 39 42 45 47 49 51 53 56 58 60 62 64 67 70 73 76 79 79 78 76 73 71 70 68 66
16 16 15 14 14 14 14 14 14 14 14 15 16 17 18 20 21 24 26 28 31 33 36 38 41 44 47 49 52 54 56 58 60 63 65 67 69 71 74 76 78 78 76 74 72 70 70 68 66
18 18 17 17 17 17 16 16 16 16 17 18 19 20 21 22 24 26 28 30 32 35 38 40 43 46 49 51 54 56 58 60 62 65 66 68 70 72 74 76 77 76 74 72 70 69 68 67 66
20 20 20 20 20 19 19 19 18 19 19 20 22 23 24 25 27 28 30 33 35 37 40 42 44 47 50 53 55 58 60 62 64 66 68 69 71 73 75 76 76 75 73 71 69 68 67 65 65
21 22 23 23 23 22 22 23 21 22 22 23 24 25 27 28 30 31 33 35 37 39 42 44 46 48 51 54 57 59 62 64 66 68 69 71 72 73 75 75 75 73 71 69 68 66 65 64 63
23 24 25 26 26 25 25 25 24 24 24 25 26 27 29 30 32 33 35 37 39 42 44 46 48 50 52 55 58 60 63 65 67 69 71 72 73 74 75 74 73 72 70 68 66 65 64 63 62
25 25 27 29 29 29 29 28 26 26 27 28 29 30 31 32 34 35 37 39 41 44 46 48 49 51 53 55 58 61 64 66 68 70 72 72 73 74 74 74 72 71 68 67 65 64 63 62 60
27 27 29 30 32 33 32 30 28 28 29 31 31 32 34 35 36 38 40 42 44 46 48 49 51 52 54 56 59 62 65 67 69 71 72 73 73 74 74 73 71 69 67 65 64 62 62 60 59
28 29 31 33 35 37 37 32 30 31 33 34 34 35 36 38 39 40 42 44 46 48 49 51 52 54 55 57 59 62 65 67 70 72 73 73 73 74 73 72 70 68 66 64 63 61 60 59 58
29 30 32 35 37 39 41 35 32 34 35 37 38 38 39 40 41 43 44 46 48 49 51 53 54 55 56 58 60 62 65 67 70 72 73 73 73 73 73 72 70 68 65 63 62 60 59 58 57
Wind_Direction
117 118 117 117 116 112 107 100 93 88 82 77 70 58 44 26 6 346 336 329 325 320 316 314 312 311 309 308 307 306 306 305 305 304 304 303 302 301 300 299 298 297 296 294 293 292 290 289 287
103 104 105 105 105 104 99 93 85 74 60 45 30 13 1 353 342 331 325 321 318 315 313 312 310 309 308 308 307 306 306 306 305 304 304 303 302 301 300 299 298 296 295 294 292 291 289 287 286
99 100 100 102 101 96 89 79 70 52 27 6 355 346 339 336 329 322 319 316 314 312 311 311 310 309 308 308 307 307 307 307 306 305 304 303 302 301 300 299 298 297 295 294 292 290 289 287 285
98 97 96 97 94 84 71 55 36 14 356 343 335 331 328 327 323 318 315 313 312 312 313 312 311 310 309 309 309 308 308 307 306 305 304 303 302 302 301 300 299 298 297 296 294 292 290 288 286
93 87 81 75 68 61 46 20 359 346 336 329 324 322 322 320 317 314 313 313 313 314 314 313 312 311 311 310 310 309 308 308 307 306 305 304 304 303 303 302 301 300 299 298 296 294 292 290 287
88 80 66 41 27 23 9 350 338 334 330 323 320 320 322 318 317 316 315 315 315 315 314 313 312 312 311 311 310 309 309 308 308 307 306 305 305 305 304 304 304 303 301 300 298 296 294 292 289
73 60 42 7 355 353 346 336 330 329 327 319 317 318 321 319 319 317 316 316 317 316 314 313 313 312 311 311 310 310 310 310 309 308 307 307 307 307 307 306 306 304 303 302 300 298 296 294 292
45 25 358 344 341 339 334 330 324 321 320 315 314 317 320 320 319 318 317 317 316 315 315 314 314 313 313 312 312 311 311 311 310 310 309 309 309 309 309 308 307 306 305 303 302 300 298 296 295
6 353 341 334 332 329 327 325 319 316 315 313 314 316 319 320 321 320 319 318 317 316 316 316 316 316 315 314 314 313 313 313 313 312 312 311 311 311 310 309 308 307 306 304 303 302 300 299 297
342 337 332 325 323 321 321 321 317 314 314 314 315 317 319 322 323 322 320 319 319 319 319 319 319 318 317 317 316 316 315 315 314 314 313 313 312 311 311 310 309 308 307 306 305 304 302 300 298
332 330 327 322 320 319 320 321 319 316 316 318 320 320 323 325 325 324 323 322 323 323 323 323 322 321 321 320 319 318 317 316 315 315 314 313 312 312 311 310 310 309 309 308 306 305 304 301 298
328 328 327 324 323 323 324 326 325 323 323 325 328 330 331 331 329 327 326 326 327 327 326 326 325 325 324 322 321 319 318 317 316 315 314 313 312 312 311 311 311 310 310 309 309 307 305 302 300
324 324 325 327 328 328 328 330 332 330 330 332 334 336 336 333 332 330 330 330 330 330 330 330 329 328 326 325 323 321 320 318 317 315 314 313 312 312 312 312 312 312 312 312 311 310 307 305 302
319 321 324 326 329 330 329 333 338 336 337 338 338 337 336 335 335 335 334 334 333 332 332 331 330 329 328 327 325 324 322 320 318 316 315 314 313 313 313 314 314 314 315 315 314 312 310 307 303
314 317 320 325 329 331 331 335 342 340 341 341 340 338 337 337 337 338 338 338 336 335 334 333 332 332 330 329 328 326 325 323 320 319 317 316 315 315 315 316 316 317 318 317 316 314 312 309 306
307 310 314 320 324 327 328 331 339 342 343 344 343 340 339 340 340 340 341 340 339 338 337 336 335 334 333 332 330 329 327 325 323 321 319 318 317 318 318 319 320 321 321 320 319 317 314 311 308
298 301 307 312 315 318 321 324 335 341 343 343 342 342 342 342 343 342 342 342 341 340 339 338 337 336 336 335 333 332 330 328 326 324 322 321 321 321 321 322 323 324 324 323 322 319 317 314 311
290 290 287 288 296 305 313 320 328 336 340 342 342 342 344 345 346 345 345 344 343 343 342 341 340 339 338 337 336 335 334 332 330 327 326 325 324 324 324 325 326 327 326 325 324 321 319 316 314
279 273 270 274 286 295 303 312 321 328 334 338 340 341 344 346 347 347 346 346 346 345 344 343 343 341 340 339 338 337 336 335 333 331 329 328 327 327 328 328 329 329 329 327 326 323 322 320 317
272 269 270 276 282 289 297 305 314 321 327 332 335 339 343 345 346 346 346 345 345 345 344 344 344 343 342 341 340 339 338 337 335 333 332 331 330 330 331 331 332 332 331 329 328 326 325 323 321
272 270 271 275 279 283 291 299 309 314 319 325 329 335 340 343 344 345 345 345 344 344 344 344 344 344 343 343 342 340 339 338 337 336 334 334 333 333 333 334 334 334 333 331 330 328 327 326 325
273 272 272 274 276 281 289 295 304 308 313 318 324 330 336 340 341 342 343 343 344 344 343 343 343 343 343 344 343 341 340 339 338 337 336 336 335 335 335 336 336 335 334 333 332 330 329 329 329
273 272 271 273 275 279 285 291 298 303 308 315 321 327 331 335 337 339 340 341 342 342 342 343 343 343 343 343 343 342 341 340 339 339 338 337 337 337 337 337 337 337 336 335 333 332 332 332 331
272 271 271 271 274 277 283 287 294 300 305 312 318 323 327 331 333 335 336 338 339 340 341 341 341 341 342 342 342 342 341 341 340 340 339 338 338 338 339 339 339 338 338 336 335 334 334 334 334
272 271 271 271 273 277 281 285 293 297 303 309 314 318 323 326 329 331 333 335 336 337 338 339 339 340 340 341 341 341 341 341 341 341 340 340 340 340 340 340 340 340 339 338 337 336 336 336 336
271 270 271 272 274 276 279 284 292 296 301 305 310 314 318 322 325 327 329 331 333 334 335 336 337 337 338 339 340 341 341 341 341 341 341 341 341 341 341 341 341 341 340 339 338 338 338 338 338
272 269 270 271 274 275 279 285 289 295 298 302 306 310 314 318 321 324 326 327 329 331 333 334 335 335 336 337 339 340 341 341 341 341 341 341 341 342 342 342 342 342 341 341 340 340 340 340 340
272 271 271 272 274 277 280 285 290 292 295 299 303 307 311 315 318 321 322 324 326 327 329 331 332 333 334 335 337 338 339 340 340 340 341 341 341 342 343 343 343 343 342 342 341 341 341 342 341
274 273 273 273 275 278 281 285 291 292 294 298 301 304 308 312 315 317 319 321 322 324 326 328 329 331 333 334 335 337 338 339 339 340 341 341 341 342 343 344 344 344 343 343 343 342 342 343 343
276 274 274 275 276 278 282 289 292 293 294 296 298 301 305 308 311 313 316 317 319 321 323 325 327 329 331 332 333 335 336 337 338 339 340 341 341 342 343 344 344 344 344 344 344 343 343 344 344
Height
5889 5890 5891 5892 5893 5892 5892 5892 5891 5891 5891 5891 5890 5890 5890 5890 5890 5891 5888 5885 5884 5883 5881 5880 5878 5877 5875 5873 5872 5870 5868 5866 5865 5863 5861 5859 5857 5856 5854 5852 5851 5849 5847 5846 5845 5844 5843 5842 5841
5891 5892 5893 5894 5893 5893 5894 5893 5892 5892 5892 5891 5890 5889 5889 5888 5887 5886 5885 5883 5882 5881 5879 5877 5876 5874 5872 5870 5868 5866 5864 5862 5860 5858 5856 5854 5852 5850 5848 5846 5844 5842 5840 5839 5837 5836 5834 5833 5832
5894 5894 5895 5895 5895 5895 5895 5894 5893 5892 5892 5891 5890 5889 5888 5887 5886 5885 5883 5881 5880 5878 5876 5875 5873 5871 5869 5866 5864 5862 5860 5858 5855 5853 5851 5848 5846 5843 5841 5839 5836 5834 5832 5830 5828 5826 5825 5823 5822
5896 5897 5897 5897 5896 5896 5895 5894 5893 5892 5892 5890 5889 5888 5887 5886 5884 5883 5881 5879 5877 5875 5873 5871 5869 5867 5865 5863 5860 5858 5856 5853 5850 5848 5845 5842 5839 5836 5834 5831 5828 5825 5822 5819 5817 5815 5813 5811 5809
5898 5899 5899 5898 5897 5896 5895 5894 5893 5892 5891 5889 5888 5886 5885 5884 5882 5880 5878 5876 5874 5872 5870 5868 5865 5863 5861 5858 5856 5853 5850 5848 5845 5842 5839 5835 5832 5829 5825 5822 5818 5814 5811 5807 5804 5801 5798 5796 5793
5900 5900 5900 5899 5898 5897 5895 5894 5892 5891 5889 5887 5885 5884 5883 5882 5880 5877 5875 5873 5871 5869 5867 5864 5862 5859 5856 5854 5851 5848 5845 5842 5838 5835 5832 5828 5824 5820 5816 5812 5807 5803 5798 5793 5789 5785 5781 5777 5774
5902 5900 5900 5899 5898 5896 5895 5893 5891 5889 5888 5885 5883 5881 5880 5879 5877 5875 5872 5870 5868 5865 5863 5860 5858 5855 5852 5849 5846 5842 5839 5835 5832 5828 5824 5820 5815 5811 5806 5801 5795 5790 5784 5779 5773 5767 5762 5756 5751
5902 5901 5899 5898 5896 5895 5894 5892 5889 5887 5886 5884 5881 5879 5878 5876 5874 5872 5869 5867 5865 5862 5859 5856 5853 5850 5847 5844 5840 5837 5833 5829 5824 5820 5815 5811 5806 5800 5795 5789 5783 5777 5770 5763 5756 5749 5741 5734 5726
5901 5902 5899 5897 5895 5893 5892 5890 5888 5886 5884 5882 5880 5878 5876 5874 5871 5869 5866 5864 5861 5858 5855 5852 5849 5846 5842 5838 5834 5830 5826 5821 5816 5811 5806 5801 5795 5790 5784 5777 5771 5764 5756 5748 5740 5730 5721 5711 5701
5901 5900 5898 5896 5893 5891 5889 5888 5886 5883 5881 5880 5878 5876 5873 5871 5869 5866 5863 5860 5857 5855 5851 5848 5844 5840 5836 5832 5828 5823 5819 5814 5808 5803 5797 5791 5785 5779 5773 5766 5759 5751 5742 5733 5723 5712 5700 5688 5676
5899 5898 5896 5894 5891 5889 5887 5885 5883 5881 5879 5877 5876 5874 5871 5869 5866 5863 5860 5857 5854 5850 5846 5843 5839 5835 5830 5826 5821 5816 5811 5805 5800 5794 5788 5782 5775 5769 5761 5754 5746 5737 5728 5717 5706 5693 5679 5664 5649
5897 5895 5893 5891 5889 5886 5884 5882 5880 5878 5877 5875 5873 5871 5868 5866 5863 5860 5857 5853 5850 5846 5842 5838 5833 5829 5824 5819 5814 5809 5803 5798 5792 5786 5779 5773 5766 5758 5751 5743 5733 5723 5712 5700 5687 5672 5656 5639 5622
5895 5893 5891 5889 5886 5884 5882 5880 5878 5876 5874 5871 5869 5867 5865 5863 5860 5857 5853 5849 5845 5841 5837 5833 5828 5823 5818 5813 5808 5802 5796 5790 5784 5777 5770 5763 5756 5748 5739 5730 5720 5708 5696 5682 5666 5649 5631 5612 5596
5894 5891 5889 5887 5885 5883 5880 5878 5877 5875 5872 5870 5867 5865 5862 5860 5856 5853 5849 5845 5841 5837 5832 5828 5823 5818 5812 5807 5801 5795 5789 5782 5775 5768 5761 5754 5746 5737 5727 5717 5705 5692 5677 5661 5644 5625 5606 5588 5572
5892 5890 5888 5885 5883 5881 5879 5877 5875 5873 5871 5868 5866 5863 5860 5857 5853 5849 5845 5841 5837 5833 5828 5823 5818 5812 5807 5801 5795 5788 5781 5774 5767 5760 5752 5744 5735 5725 5714 5702 5689 5674 5658 5640 5621 5601 5582 5565 5550
5890 5888 5886 5884 5882 5879 5879 5876 5874 5871 5868 5866 5863 5860 5857 5853 5850 5846 5842 5837 5833 5829 5824 5818 5813 5807 5801 5795 5788 5781 5774 5766 5758 5750 5742 5733 5723 5712 5700 5687 5672 5656 5638 5619 5599 5580 5562 5545 5530
5888 5886 5884 5882 5880 5878 5876 5874 5872 5869 5866 5864 5861 5858 5854 5850 5846 5842 5838 5834 5829 5824 5819 5813 5808 5801 5795 5788 5781 5774 5766 5758 5749 5740 5731 5721 5710 5698 5685 5671 5656 5638 5619 5598 5578 5559 5541 5526 5511
5886 5884 5882 5880 5879 5876 5874 5872 5869 5866 5864 5861 5858 5855 5851 5847 5843 5839 5835 5830 5825 5820 5814 5808 5802 5795 5789 5781 5774 5766 5758 5749 5740 5730 5720 5709 5697 5684 5670 5655 5638 5620 5600 5579 5559 5541 5523 5506 5491
5884 5882 5880 5878 5876 5874 5872 5870 5867 5864 5861 5859 5856 5852 5848 5844 5840 5835 5831 5826 5821 5815 5809 5803 5796 5789 5782 5774 5766 5758 5749 5739 5730 5719 5708 5696 5684 5670 5655 5639 5621 5602 5582 5562 5542 5524 5508 5491 5473
5881 5879 5877 5876 5873 5871 5869 5867 5864 5861 5858 5856 5853 5849 5845 5840 5836 5831 5826 5821 5816 5810 5804 5797 5790 5783 5775 5767 5758 5749 5740 5730 5719 5708 5696 5684 5670 5656 5640 5623 5605 5585 5565 5545 5526 5508 5492 5476 5457
5877 5876 5874 5872 5870 5868 5866 5864 5861 5858 5855 5852 5849 5845 5841 5836 5832 5827 5822 5817 5811 5805 5798 5791 5784 5776 5768 5759 5750 5740 5730 5720 5709 5696 5684 5671 5656 5641 5625 5608 5589 5569 5550 5530 5511 5493 5476 5462 5445
5874 5872 5870 5868 5866 5865 5863 5860 5858 5855 5851 5848 5845 5841 5837 5832 5827 5822 5817 5812 5806 5799 5792 5785 5777 5769 5760 5751 5742 5732 5721 5710 5698 5685 5672 5658 5643 5628 5611 5593 5574 5555 5535 5516 5498 5480 5462 5446 5432
5869 5867 5866 5864 5862 5860 5858 5855 5855 5851 5847 5844 5840 5836 5832 5827 5823 5817 5812 5806 5800 5793 5786 5778 5770 5762 5753 5743 5734 5723 5712 5700 5688 5674 5661 5646 5631 5615 5598 5579 5561 5542 5523 5504 5486 5468 5451 5433 5417
5865 5863 5861 5859 5857 5856 5854 5851 5850 5846 5843 5839 5835 5831 5826 5822 5817 5812 5806 5800 5793 5786 5779 5771 5763 5754 5745 5735 5725 5714 5703 5691 5678 5664 5650 5635 5619 5602 5585 5567 5549 5530 5511 5493 5476 5458 5441 5425 5408
5860 5859 5856 5854 5852 5851 5848 5845 5845 5842 5838 5834 5830 5826 5821 5816 5811 5805 5799 5793 5786 5779 5772 5764 5756 5747 5737 5727 5717 5706 5694 5681 5668 5654 5640 5624 5608 5591 5574 5556 5538 5520 5501 5484 5467 5450 5433 5417 5400
5855 5853 5852 5849 5847 5845 5842 5840 5840 5836 5832 5828 5824 5820 5815 5810 5805 5799 5793 5786 5779 5772 5765 5757 5748 5739 5730 5719 5709 5697 5685 5673 5659 5645 5631 5615 5599 5582 5565 5547 5529 5510 5493 5475 5458 5442 5425 5409 5393
5849 5847 5845 5842 5839 5837 5836 5835 5834 5830 5826 5822 5819 5814 5809 5804 5798 5792 5786 5779 5772 5765 5757 5749 5740 5731 5722 5711 5700 5689 5677 5664 5650 5636 5621 5606 5589 5573 5556 5538 5520 5502 5485 5468 5451 5435 5419 5403 5388
5843 5841 5839 5836 5832 5830 5829 5828 5828 5824 5820 5816 5812 5807 5802 5796 5791 5785 5778 5771 5764 5757 5749 5741 5732 5723 5713 5703 5692 5680 5668 5655 5642 5627 5612 5597 5581 5564 5547 5530 5512 5495 5478 5461 5445 5429 5414 5398 5383
5837 5835 5832 5829 5826 5823 5820 5824 5821 5817 5812 5808 5804 5799 5794 5788 5783 5777 5770 5764 5756 5749 5741 5732 5723 5714 5705 5694 5684 5672 5660 5647 5633 5619 5604 5588 5572 5556 5539 5522 5505 5488 5472 5455 5439 5424 5409 5394 5379
5830 5828 5826 5823 5819 5815 5811 5816 5815 5810 5804 5800 5795 5791 5786 5781 5775 5769 5762 5755 5748 5740 5732 5723 5715 5706 5696 5686 5675 5664 5651 5639 5625 5611 5596 5580 5564 5548 5532 5515 5498 5482 5465 5449 5434 5419 5404 5390 5375